Theta_e
325 326 325 324 321 318 317 317 318 318 318 318 315 315 315 315 316 316 315 315 315 315 315 314 315 314 313 312 314 314 315 314 316 316 316 316 316 319 317 318 320 321 321
325 325 324 323 321 318 317 318 319 319 318 318 315 314 315 315 315 315 315 315 315 315 315 315 315 315 316 316 314 313 314 315 315 315 317 317 318 319 318 318 319 321 321
325 324 324 323 321 320 319 318 319 319 319 318 317 315 315 315 315 315 315 315 315 315 317 315 316 316 316 318 317 317 316 316 316 317 318 317 318 319 319 318 320 321 320
324 323 322 321 321 320 319 318 318 319 319 318 318 316 315 315 315 315 315 314 314 315 315 317 317 317 317 319 318 318 318 317 318 319 319 318 319 319 320 320 320 320 320
323 322 322 321 321 321 320 320 319 319 319 319 318 318 317 316 315 314 313 313 313 314 315 316 318 318 316 317 317 319 319 318 319 318 318 318 320 320 322 319 321 320 318
322 322 321 321 321 321 321 321 321 321 320 320 319 319 319 317 315 314 311 310 310 313 316 318 319 317 317 318 316 316 316 318 320 319 319 319 319 321 319 321 320 321 320
323 322 322 321 321 321 321 321 321 322 322 322 321 321 320 320 317 315 311 309 309 313 316 320 316 318 318 320 320 319 318 316 315 315 315 320 321 320 319 319 319 321 321
323 322 322 321 320 321 321 322 322 322 322 321 323 322 322 320 319 317 311 309 311 316 317 319 317 317 319 319 320 319 320 319 319 318 318 318 319 318 319 319 318 318 319
322 323 323 323 322 322 322 321 322 323 323 317 322 323 322 322 320 319 314 310 313 317 319 320 319 319 320 318 317 316 320 319 320 319 315 314 315 316 317 318 318 319 318
322 322 323 324 324 324 325 324 324 324 324 323 323 322 322 321 321 320 315 313 313 316 319 319 319 318 316 315 315 317 319 320 321 321 318 317 317 314 317 316 318 319 319
315 318 319 320 321 321 321 322 322 322 322 322 322 322 322 322 322 319 316 310 311 316 318 318 319 318 317 315 315 314 317 318 319 318 320 320 319 319 317 317 318 318 318
311 312 313 314 314 314 315 317 318 321 321 320 321 321 321 321 321 320 318 316 313 309 315 317 318 319 319 315 314 313 314 314 316 318 320 320 320 318 319 317 319 317 317
309 309 310 310 310 309 311 312 312 312 315 317 318 318 319 317 317 317 317 316 316 313 311 313 317 318 317 314 314 313 313 314 317 318 321 319 320 318 319 318 316 317 317
303 303 304 304 302 304 305 307 307 307 308 307 305 309 312 312 316 316 316 316 315 314 313 315 315 315 316 316 317 318 316 314 317 319 321 321 319 317 318 318 318 317 316
298 299 299 297 298 298 299 299 299 300 299 297 298 299 299 302 305 307 311 313 314 313 313 313 315 317 318 319 318 318 317 318 318 321 321 320 319 319 318 319 319 317 317
297 297 296 295 296 296 297 297 297 296 295 295 294 294 295 294 293 293 298 304 309 311 313 314 313 313 314 316 317 318 317 317 318 318 321 319 319 320 319 318 319 318 318
295 295 294 294 295 295 295 295 296 296 296 295 295 295 294 294 293 292 291 292 293 299 307 311 311 313 313 315 316 317 317 318 317 319 319 319 317 318 319 320 319 318 318
295 294 294 294 294 294 294 294 295 295 295 295 295 295 294 294 294 293 294 297 299 298 300 307 309 311 313 314 315 315 316 318 319 317 320 319 318 317 319 320 318 318 319
294 294 293 293 293 293 294 294 294 294 294 294 295 295 294 294 293 294 295 296 297 297 298 296 298 305 309 310 312 313 315 316 317 317 318 319 317 318 319 320 319 319 319
293 292 292 293 293 294 294 293 294 293 294 294 294 294 294 293 293 295 296 296 296 296 297 297 297 295 297 303 307 310 312 315 317 317 316 319 318 317 318 319 319 318 318
292 292 292 293 293 293 293 294 293 293 293 293 293 293 292 292 294 295 295 295 295 295 296 296 296 296 295 295 300 304 307 312 316 315 317 318 318 317 317 317 317 315 317
292 292 293 293 293 293 293 293 293 293 293 293 293 293 292 293 294 293 293 293 293 293 293 294 295 295 296 296 295 298 302 305 312 315 315 317 318 318 316 318 317 315 318
292 292 292 293 293 293 293 293 293 293 293 293 293 293 293 293 292 292 292 292 292 292 292 292 292 292 294 295 296 295 296 299 306 308 311 315 316 318 318 318 318 317 317
292 291 292 293 293 293 293 293 293 292 293 293 293 293 293 293 292 292 292 292 292 292 291 291 291 291 292 293 294 295 295 296 297 301 304 309 313 317 318 318 318 318 318
290 291 292 293 293 293 293 292 292 292 292 292 292 292 292 293 292 292 292 291 291 291 290 290 290 290 291 291 291 293 294 295 295 297 299 306 310 312 316 317 319 317 318
292 292 292 293 293 292 292 292 292 292 292 292 292 292 292 292 292 292 291 291 291 290 290 290 290 290 290 291 291 291 292 294 294 294 295 299 305 309 314 316 318 317 315
Wind_Speed
2 4 4 5 6 8 7 7 8 10 10 10 10 11 12 12 12 14 16 15 15 18 16 15 14 14 12 13 14 12 13 13 14 13 10 11 16 12 11 10 10 10 11
5 5 7 7 8 9 8 8 10 10 11 11 12 12 12 13 13 14 15 16 16 18 19 18 18 12 14 13 12 15 16 16 16 18 16 15 15 11 13 10 9 10 9
7 8 7 8 10 11 10 11 11 12 12 12 13 14 14 14 14 15 16 15 18 19 19 17 18 16 15 13 15 14 14 16 17 18 17 14 13 13 13 10 10 11 9
9 9 9 9 10 11 11 12 12 13 14 14 15 15 15 15 15 15 13 18 19 18 18 17 17 14 16 15 15 17 17 17 16 14 17 15 12 11 14 10 10 11 12
9 8 8 9 10 10 11 12 13 14 14 15 16 16 16 17 15 16 19 20 20 20 18 16 16 16 15 12 12 12 14 13 13 15 16 13 14 13 13 11 11 12 13
4 6 7 8 10 12 14 14 14 14 15 15 16 17 17 17 19 24 21 23 24 20 16 13 16 17 13 14 12 12 13 14 14 13 16 17 17 15 16 13 12 11 11
5 7 9 10 13 14 16 18 18 18 17 17 17 17 18 18 20 24 23 24 26 20 14 16 17 14 18 16 16 13 14 14 15 16 18 16 17 15 12 10 9 12 11
9 11 13 15 17 18 19 21 21 22 21 22 19 18 18 18 20 23 21 23 23 15 14 18 15 14 13 15 13 14 16 17 20 19 16 15 16 15 15 13 14 13 12
12 13 14 16 19 20 21 22 23 22 24 25 21 20 20 20 20 23 20 19 16 16 15 16 12 12 16 17 18 17 16 16 17 19 15 11 11 11 12 10 10 8 9
10 13 14 15 17 18 19 20 21 22 22 20 21 23 22 22 21 21 19 14 15 15 15 14 17 13 15 17 16 14 12 11 11 11 11 10 9 9 9 13 12 14 13
13 13 13 14 15 15 16 15 18 21 21 22 23 24 23 22 21 19 14 14 13 13 16 15 19 16 15 15 12 11 11 10 7 10 11 12 11 11 10 8 8 11 13
14 14 15 15 14 15 16 17 18 17 16 16 17 19 20 18 23 17 14 17 17 17 14 14 17 14 17 15 14 13 13 11 10 14 14 14 15 14 10 8 7 8 9
13 14 15 16 17 17 19 18 18 20 21 19 18 17 17 13 9 11 14 15 15 17 18 17 21 21 22 22 18 15 14 15 13 16 14 15 15 11 9 8 6 6 6
16 16 15 16 17 15 16 15 17 19 17 15 18 20 22 21 18 19 21 21 18 17 18 18 16 19 20 19 19 17 17 16 14 16 13 11 9 5 8 7 10 10 8
16 15 15 16 17 17 15 16 16 14 16 18 17 15 20 23 22 24 25 27 27 23 19 19 17 20 19 18 18 17 17 20 14 14 11 10 8 6 7 11 11 11 10
15 14 16 17 15 15 16 17 14 17 20 19 17 17 16 23 27 28 29 28 28 28 32 30 24 22 22 23 23 21 22 18 16 18 12 12 8 7 10 11 11 11 14
15 15 15 15 16 16 16 17 18 17 17 17 18 19 21 23 28 26 21 21 21 24 23 21 21 22 24 22 23 26 26 23 16 16 15 11 11 9 11 10 12 13 16
15 15 15 17 16 16 17 16 17 18 19 18 16 18 21 18 27 19 20 14 15 16 14 16 18 22 21 22 15 25 30 23 17 18 16 14 12 9 10 10 13 14 14
15 15 16 17 16 16 16 17 17 18 18 18 18 17 14 20 26 19 16 15 17 17 18 21 21 20 22 22 20 18 18 25 20 19 19 16 15 15 12 9 12 12 14
16 17 17 16 17 17 17 17 17 19 18 18 18 18 18 21 22 16 16 16 18 18 19 20 24 26 30 26 20 18 18 25 16 17 22 17 18 18 15 18 15 15 15
17 17 18 17 17 17 18 18 19 18 19 19 19 18 20 21 16 18 17 18 19 20 21 21 21 25 29 31 32 25 19 17 20 10 20 21 19 20 18 13 18 14 15
17 19 19 19 19 19 19 21 18 21 19 20 20 19 18 16 17 18 18 19 19 19 20 21 22 22 22 28 31 35 32 25 18 15 7 19 23 22 23 19 17 19 19
18 23 22 21 21 21 21 20 21 21 21 20 20 20 19 17 16 18 19 20 18 19 20 22 24 24 22 22 25 33 35 37 29 23 15 15 15 23 26 23 21 21 21
23 25 23 22 22 22 22 22 22 21 21 21 21 20 20 17 17 19 19 19 18 19 19 24 24 25 25 24 24 25 34 38 40 40 33 20 16 18 27 27 28 23 27
26 22 21 23 22 22 22 21 22 22 21 22 22 22 20 19 18 18 19 19 21 22 24 25 24 26 26 30 28 28 29 30 39 44 43 33 23 23 17 32 28 30 22
21 21 22 22 22 22 23 23 22 23 22 23 21 23 22 22 20 20 20 19 21 22 26 24 25 26 28 27 27 29 29 32 34 36 41 45 39 29 25 21 33 34 37
Wind_Direction
253 268 287 295 303 314 291 288 302 310 315 318 315 310 311 311 309 308 310 314 304 305 302 295 294 296 296 285 286 287 287 281 286 290 293 297 286 286 283 254 233 249 249
278 278 288 288 299 311 297 291 299 306 308 312 315 306 303 306 305 307 307 306 306 304 301 300 295 291 285 274 277 276 279 278 281 287 287 283 285 280 274 251 227 246 244
295 295 283 286 294 309 304 290 297 299 301 303 306 305 299 299 302 305 303 307 305 300 297 297 293 284 282 277 267 265 267 276 274 275 278 280 278 270 277 247 236 230 227
299 290 286 289 297 302 303 297 292 298 294 294 297 303 299 298 297 301 298 306 305 297 290 287 286 290 280 284 280 274 268 265 275 273 271 278 269 261 255 253 232 219 218
290 281 284 293 298 298 296 295 291 289 292 292 293 296 300 299 300 284 297 307 305 300 289 280 283 280 281 280 282 279 272 270 266 273 281 282 268 259 261 251 239 240 224
271 283 288 292 296 295 291 289 287 286 285 287 288 291 293 298 293 291 299 305 311 301 288 283 270 276 283 282 282 295 285 268 275 279 277 277 274 273 269 259 247 238 240
273 282 287 286 288 291 289 285 281 279 280 281 283 287 291 289 292 298 307 307 310 297 270 275 279 274 272 268 276 285 299 285 282 280 276 277 281 277 272 260 256 256 255
284 288 290 288 287 287 287 282 282 281 280 279 282 281 283 289 290 297 311 310 314 303 280 280 282 282 273 280 271 279 278 283 281 283 282 286 278 273 255 248 258 255 257
295 298 301 297 294 293 291 287 293 287 282 279 277 278 278 281 284 289 304 307 306 289 285 275 293 298 285 285 288 285 282 265 267 275 272 283 286 275 257 251 260 249 240
307 310 312 306 298 298 297 292 290 290 286 283 278 275 276 279 280 292 299 298 299 291 280 279 268 282 291 292 281 284 281 287 267 260 284 287 299 294 272 252 236 240 231
330 324 316 293 294 313 291 285 291 293 292 289 287 281 276 275 269 276 299 305 295 291 286 282 284 270 297 290 286 281 276 278 274 278 280 287 287 280 288 265 232 234 230
339 336 332 326 327 317 315 309 293 289 291 287 300 296 293 299 289 255 286 313 315 292 282 277 282 292 289 288 283 284 283 262 279 288 284 288 287 274 244 249 238 247 232
332 328 326 323 322 323 321 319 323 316 292 295 280 286 284 316 304 284 267 263 271 286 294 272 265 273 274 280 280 281 279 269 280 284 290 306 293 268 239 220 237 198 192
333 331 325 324 318 321 318 311 312 314 319 322 319 302 292 286 277 281 270 264 250 259 280 281 282 265 267 261 259 270 275 271 262 281 291 297 298 225 195 214 169 143 136
337 336 328 325 327 324 319 315 314 308 314 319 315 320 314 303 303 300 286 283 277 273 247 256 272 266 263 261 258 255 255 262 254 278 278 269 265 226 219 189 177 162 159
341 333 329 331 326 323 321 319 316 316 319 324 320 319 327 323 324 318 300 293 289 291 278 264 263 263 271 270 269 266 260 252 254 266 260 266 250 248 226 203 185 189 176
334 332 329 332 325 324 323 321 319 318 320 323 321 323 326 327 329 330 327 316 305 294 295 282 254 266 268 280 269 272 273 241 253 253 260 248 262 248 223 206 198 193 189
327 326 323 324 322 322 318 318 317 318 318 317 317 320 312 317 319 339 356 355 328 320 300 283 262 249 245 258 286 273 265 276 231 244 240 243 240 242 205 210 206 198 198
326 322 316 319 320 315 318 316 316 317 315 314 314 314 312 321 329 341 339 335 323 323 322 319 300 282 262 261 267 279 270 256 255 241 240 230 229 223 209 196 176 189 188
321 320 320 317 318 317 315 315 315 316 313 315 314 313 315 324 327 328 329 328 325 322 320 320 321 316 296 286 283 270 268 252 262 247 248 226 229 216 232 198 187 180 202
322 323 319 313 311 312 312 311 313 308 309 312 312 313 319 321 315 325 327 327 327 323 320 318 315 315 320 304 287 284 276 259 252 281 244 239 224 227 218 224 197 196 171
314 319 317 310 307 307 307 308 302 305 304 308 310 310 309 307 321 324 323 328 330 327 321 317 311 308 309 310 311 284 279 275 258 243 261 236 234 219 217 219 210 200 180
304 313 311 308 305 306 304 304 302 301 305 304 307 308 308 310 316 314 314 320 320 327 328 330 326 313 305 301 308 309 289 275 267 272 280 239 243 219 217 220 213 210 190
304 307 303 305 305 305 302 302 303 300 301 303 305 305 304 305 309 309 312 314 321 325 323 327 326 326 319 310 295 293 299 283 275 272 272 272 241 226 225 214 217 205 198
304 302 300 302 303 303 302 302 301 302 302 301 301 301 302 306 305 303 306 309 309 317 322 323 320 324 324 321 310 299 283 283 286 273 270 263 257 244 239 229 212 213 200
302 300 301 301 302 302 300 300 299 299 298 298 298 298 297 301 302 298 299 305 310 312 316 319 319 320 323 322 319 305 288 267 266 275 277 266 258 252 231 224 223 218 212